User: anonymous   Login
Location: Unspecified
(0.0000°N, 0.0000°E)
Time: 02:41:29
(UTC+02:00)
Language:

Delta 2 Rocket - Orbit

View from above orbital plane
View from above orbital plane
View from above satellite
View from above satellite

Ground track
Ground track

The orbit data is extracted from the following two-line orbital elements,

1 20453U 90008B   16207.83533888  .00000998  00000-0  60797-4 0  9992
2 20453  35.6272 345.9980 0294364 336.1221  22.6077 14.81942523399740
Epoch (UTC): 25 July 2016 20:02:53
Eccentricity: 0.0294364
inclination: 35.6272°
perigee height: 417 km
apogee height: 829 km
right ascension of ascending node: 345.9980°
argument of perigee: 336.1221°
revolutions per day: 14.81942523
mean anomaly at epoch: 22.6077°
orbit number at epoch: 39974

The dashed part of the orbit path shows where the satellite is in the earth's shadow,  

DLR